Temperature
27 26 24 23 22 21 20 20 19 19 19 18 18 17 17 16 16 16 16 16 15 15 15 15 15 15 15 15 14 14 14 14 13 13 12 12 12 11 11 11 10 10 9
26 25 24 23 22 21 20 20 19 19 19 18 17 17 16 16 16 16 15 15 15 14 14 14 14 14 14 14 14 13 13 13 12 12 11 11 11 10 10 9 9 9 9
24 24 24 23 22 21 20 19 19 18 18 17 17 16 16 16 15 15 14 14 14 13 13 13 13 13 13 13 13 12 12 12 11 11 11 11 13 12 10 9 8 8 8
22 23 23 22 22 21 20 19 18 18 17 17 17 16 16 16 15 15 14 14 13 13 12 12 12 12 12 12 12 11 11 11 10 10 10 9 9 10 12 10 9 8 7
20 20 21 21 21 21 20 19 18 17 17 17 16 16 16 16 15 15 14 13 12 12 12 12 12 11 11 11 11 11 10 10 9 9 9 8 8 8 9 10 9 9 9
18 18 18 18 18 18 18 18 17 17 16 16 16 15 15 15 15 14 13 12 12 12 11 11 11 10 10 10 10 10 9 8 8 8 8 8 9 9 9 9 9 9 9
16 16 16 16 16 16 16 16 16 16 15 15 15 15 14 14 14 13 13 12 11 11 10 10 10 10 10 10 9 8 7 7 6 6 7 7 7 7 7 8 8 8 8
14 14 14 15 15 15 15 15 15 15 15 14 14 14 13 13 13 12 12 11 11 10 9 9 9 9 9 8 8 7 6 6 6 6 6 6 7 6 6 7 7 7 8
13 14 14 14 14 14 14 14 14 14 14 14 13 13 13 12 12 11 11 10 9 9 9 8 8 8 7 7 6 6 6 6 6 6 6 5 6 5 5 5 5 6 6
13 13 13 13 13 13 13 14 14 13 13 13 12 12 12 11 11 10 10 9 9 8 8 8 7 7 6 6 6 6 5 5 5 5 4 4 5 4 4 4 4 4 5
12 12 12 13 13 13 13 13 13 12 12 12 12 12 11 11 10 10 9 8 8 8 7 7 6 6 6 6 5 5 5 4 4 4 4 3 3 3 3 3 4 4 4
12 12 12 12 12 12 12 12 12 12 11 11 11 11 10 10 9 9 8 8 7 7 6 6 6 5 5 5 4 4 4 3 3 3 3 3 3 2 2 2 2 2 2
11 11 11 11 11 11 11 11 11 11 10 10 10 10 9 9 8 8 7 7 6 6 5 5 5 5 4 4 4 3 3 2 2 2 2 2 2 2 2 1 1 1 1
10 10 10 10 10 10 10 10 10 9 9 9 9 8 8 7 7 6 6 6 5 5 5 5 4 4 3 3 3 2 2 2 2 1 1 1 1 1 1 1 1 1 1
10 10 9 9 9 9 9 9 9 8 8 8 8 7 7 6 6 6 5 5 5 4 4 4 3 3 3 2 2 2 1 1 1 1 1 1 1 1 0 0 -0 -0 0
9 9 9 9 8 8 8 8 8 7 7 7 6 6 6 6 5 5 4 4 4 4 3 3 2 2 2 2 2 2 1 1 1 1 1 1 0 0 -0 -0 -0 -0 -0
8 8 8 8 8 7 7 7 7 6 6 6 5 5 5 5 4 4 4 3 3 2 2 2 2 1 1 2 1 1 1 0 0 0 0 0 0 -0 -0 -0 -0 -0 -0
8 8 7 7 7 7 6 6 6 5 5 5 4 4 4 4 3 3 3 2 2 2 1 1 1 1 0 1 1 1 0 0 0 0 0 -0 -0 -0 -1 -0 -0 0 0
7 7 7 7 6 6 6 5 5 5 4 4 4 4 3 3 3 3 2 2 2 1 1 1 0 0 -0 0 0 0 -0 -0 -0 -0 -0 -0 -0 -1 -1 -0 0 0 1
7 6 6 6 5 5 5 5 4 4 4 3 3 3 3 3 2 2 2 1 1 1 1 0 -0 -0 -1 -1 -0 -0 -1 -1 -0 -0 -0 -0 -1 -0 -0 -0 0 0 1
6 5 5 5 5 5 4 4 4 3 3 3 3 3 3 2 2 1 1 1 1 1 0 0 -0 -1 -1 -1 -1 -1 -1 -1 -1 -1 -0 -0 -0 -0 -0 0 0 0 0
5 5 5 4 4 4 4 4 3 3 3 3 3 3 2 3 2 1 1 1 1 1 1 0 -0 -1 -1 -1 -2 -2 -2 -1 -1 -1 -1 -0 -0 0 0 0 1 1 1
4 4 4 4 4 4 4 4 3 3 3 3 3 3 2 2 2 2 2 2 1 1 1 1 0 -1 -1 -1 -2 -2 -2 -2 -1 -1 -1 -0 0 0 1 1 1 1 1
4 4 4 4 4 4 4 4 4 4 4 3 3 3 3 2 2 2 2 2 2 1 1 0 -0 -1 -1 -1 -2 -2 -2 -1 -1 -1 -0 -0 0 1 1 1 1 1 1
4 4 5 5 5 4 4 4 4 4 3 3 3 3 3 3 2 2 2 2 1 0 0 -0 -1 -1 -1 -2 -2 -2 -2 -2 -1 -1 -0 0 0 1 1 1 2 2 1
5 5 5 5 5 5 4 4 4 4 3 3 3 4 3 3 3 3 2 1 1 1 0 -0 -1 -1 -2 -2 -2 -2 -1 -1 -1 -1 -0 -0 0 1 1 1 2 2 2
Wind_Speed
9 11 15 17 17 17 17 17 17 16 14 11 11 9 6 5 4 4 6 6 6 7 8 8 8 6 5 5 5 4 4 3 2 2 2 2 2 2 3 3 3 2 2
7 7 11 15 18 18 18 17 17 16 15 12 9 7 7 6 5 5 5 6 7 7 7 9 7 6 5 5 4 4 3 3 1 2 3 4 5 5 5 4 4 4 5
9 7 8 12 15 17 18 16 16 16 15 13 10 10 8 5 4 5 3 5 7 7 6 8 8 6 5 5 5 4 4 3 2 0 3 4 6 3 6 6 6 6 6
9 7 5 7 11 13 14 15 15 14 14 14 13 13 9 7 6 5 5 6 8 8 7 7 8 6 5 6 5 4 4 3 3 3 0 2 4 5 4 6 7 8 9
8 7 4 1 3 6 9 11 13 13 14 13 14 13 10 8 8 9 10 8 7 9 9 9 9 8 7 7 7 6 4 3 2 2 2 1 2 4 6 8 7 8 9
8 8 9 9 8 8 10 12 14 13 13 12 11 12 13 12 12 12 11 9 7 7 9 10 9 9 9 8 7 6 6 4 3 1 1 3 4 6 7 9 10 11 10
9 10 11 12 11 12 12 13 14 13 12 11 10 11 12 13 13 12 12 11 9 8 8 9 8 9 9 9 8 6 5 4 2 1 2 4 6 6 8 10 12 13 13
11 12 12 12 12 13 13 13 14 13 12 11 11 10 10 9 10 12 12 11 9 9 9 9 9 9 9 8 6 5 3 2 1 2 3 6 6 7 8 10 12 14 14
11 11 12 12 12 13 13 13 14 13 12 12 12 11 11 12 13 14 13 11 10 10 10 10 9 9 7 6 4 3 2 1 2 3 4 6 7 7 8 9 10 13 16
10 11 11 12 12 12 13 14 14 14 13 13 12 11 13 14 14 13 13 12 11 10 10 9 8 7 6 5 2 3 2 1 2 4 5 7 8 8 9 9 10 11 14
10 10 10 11 12 13 13 13 14 14 13 13 14 14 14 14 14 13 13 12 11 10 9 8 7 7 6 4 3 2 1 2 4 5 6 8 9 9 9 10 10 11 12
10 11 11 12 12 13 13 14 13 14 14 14 14 14 14 14 14 13 13 12 11 9 9 8 7 6 5 3 2 1 2 4 5 7 8 9 9 10 11 10 11 11 12
11 11 11 12 12 12 13 13 14 14 14 15 15 15 15 15 14 13 13 12 11 10 8 7 7 5 4 3 2 2 3 5 6 8 9 10 10 11 10 11 11 11 12
10 11 11 11 11 12 12 13 13 13 14 15 15 15 14 14 14 13 12 11 10 9 7 6 5 3 2 2 2 4 5 6 8 8 9 10 10 10 11 11 12 12 13
11 11 10 10 11 11 12 12 13 13 13 14 15 14 14 13 12 12 11 10 8 7 5 4 3 2 2 4 6 6 6 8 9 9 9 9 9 10 10 11 13 14 13
11 10 10 11 11 11 11 11 12 12 12 14 13 13 12 12 11 10 9 8 6 5 4 3 2 2 4 8 8 9 9 9 10 10 9 9 9 8 11 14 15 17 17
11 10 10 10 10 9 10 11 11 11 12 12 12 11 11 10 9 8 7 6 5 4 3 3 3 3 6 5 6 9 11 10 9 9 9 9 9 10 11 13 17 18 17
11 10 10 10 10 10 10 11 11 11 12 11 10 9 9 9 7 7 6 5 3 3 3 3 3 3 5 6 7 11 11 9 9 9 10 10 11 9 12 16 16 16 15
11 10 10 10 10 10 11 12 11 11 11 10 9 8 7 7 6 6 5 4 4 3 3 3 3 3 4 5 6 11 9 7 10 10 9 10 10 9 12 15 15 16 15
10 11 10 11 10 10 10 11 11 11 10 9 8 7 7 6 6 6 5 4 3 2 2 3 3 3 3 4 4 11 8 8 9 9 10 6 6 12 14 14 13 14 15
11 11 11 10 9 9 10 11 11 10 9 9 8 8 7 7 6 5 4 3 3 3 3 3 2 2 3 2 2 8 8 9 10 9 9 7 8 13 15 14 12 13 16
11 11 10 10 9 9 10 10 9 9 9 9 9 8 6 6 6 5 4 3 2 1 2 3 4 4 3 4 4 7 8 10 11 9 9 9 12 16 17 13 12 16 14
11 10 11 10 9 8 9 9 9 8 8 8 7 7 6 5 4 3 2 2 2 4 4 4 5 6 6 3 3 7 10 10 10 9 10 13 15 16 12 8 13 12 8
10 9 10 10 8 7 7 7 7 6 6 6 5 4 4 3 3 1 2 3 4 5 5 5 6 6 6 6 9 9 9 9 9 10 10 11 11 10 10 10 9 7 7
9 9 9 9 8 7 6 6 5 4 4 4 3 2 2 2 1 1 3 4 5 6 6 7 7 7 8 9 11 10 9 10 10 12 9 8 9 10 10 10 10 9 9
10 9 9 9 8 7 6 5 4 3 3 2 2 1 1 1 1 2 2 4 2 5 1 3 6 6 6 10 11 11 12 13 13 10 7 8 8 9 10 10 11 11 10
Wind_Direction
249 229 216 213 208 202 199 197 196 188 184 180 175 170 160 123 89 73 78 93 105 123 133 132 131 128 122 122 132 128 128 128 152 185 221 233 248 255 243 250 251 211 266
290 256 228 214 210 206 202 197 195 186 183 177 169 160 129 111 108 92 87 100 114 129 144 143 141 136 132 141 155 158 161 136 171 240 247 244 220 221 225 230 234 258 266
316 295 250 227 215 208 203 198 191 183 177 160 141 127 122 113 110 116 116 118 131 144 151 148 140 143 151 153 158 158 154 144 138 288 265 271 278 218 201 227 242 251 272
330 321 285 230 217 209 199 192 183 173 163 154 149 148 145 138 150 149 145 138 130 126 125 123 121 121 121 125 130 117 126 146 153 144 345 332 335 294 272 224 230 242 259
354 360 9 50 177 183 181 172 156 149 149 147 147 146 146 144 144 140 136 124 108 101 101 104 109 113 110 106 104 107 113 142 155 158 170 192 231 260 281 290 288 273 265
31 45 56 69 82 100 115 121 124 125 131 137 142 144 145 144 142 140 132 119 106 101 105 112 113 112 110 110 110 113 105 91 91 83 276 281 291 295 298 293 289 290 289
50 58 64 71 79 88 99 109 115 117 121 123 124 131 137 143 143 138 127 122 117 115 119 118 117 113 113 115 117 114 111 120 130 258 298 303 299 303 300 296 298 299 296
59 61 63 69 77 84 92 102 107 108 109 111 113 117 121 123 122 122 124 124 122 120 121 116 114 116 120 119 120 127 132 140 217 288 310 299 296 307 302 302 303 299 297
63 63 63 67 72 78 83 91 96 96 98 101 104 107 109 113 117 119 121 120 121 123 122 119 116 114 115 120 144 121 137 163 283 299 301 306 311 299 303 300 297 298 299
68 63 62 65 68 72 77 81 87 91 95 99 101 103 106 112 116 117 115 116 117 117 120 116 115 116 118 125 137 129 94 8 340 329 324 314 310 313 300 295 294 291 292
71 67 65 66 70 74 78 82 86 88 90 94 97 100 103 106 107 109 111 112 113 116 116 116 115 115 115 113 106 77 46 332 328 321 317 312 311 305 307 300 295 293 295
76 74 75 76 77 79 82 84 88 90 93 96 97 98 102 104 105 105 106 107 106 105 107 109 109 109 107 101 83 40 353 335 327 323 317 312 311 307 298 301 300 300 299
83 81 79 78 79 82 84 86 89 93 97 99 99 99 101 102 103 104 104 103 101 97 96 98 102 103 100 88 50 360 341 332 325 320 315 313 309 304 306 305 300 299 297
90 87 85 83 83 84 87 90 91 93 97 99 99 99 99 100 100 98 95 94 94 95 96 99 103 103 90 52 9 346 336 327 322 317 312 307 306 305 307 303 301 302 303
96 92 90 90 89 89 88 90 93 95 99 100 98 97 96 95 94 93 92 92 94 99 105 107 103 88 66 37 9 341 329 324 318 314 310 305 305 298 298 304 308 307 303
105 102 99 96 93 94 97 98 99 101 103 102 101 100 98 94 93 93 93 95 97 101 100 89 73 56 62 62 22 340 326 317 313 315 313 307 291 297 293 285 292 296 295
109 104 101 99 100 103 108 108 108 106 104 103 102 102 102 100 101 105 106 108 110 103 85 61 51 71 85 52 3 339 315 308 314 313 310 309 315 308 310 313 306 295 283
104 102 103 103 104 105 106 109 109 108 106 104 104 108 112 114 118 117 114 112 100 84 73 55 40 45 85 50 356 326 299 304 311 309 306 305 308 321 331 318 307 304 302
100 101 104 107 108 110 113 114 112 112 112 112 115 120 123 123 122 114 106 94 87 78 64 49 22 14 89 66 352 324 312 313 314 313 311 307 309 347 331 313 306 308 309
100 103 106 107 106 110 116 116 114 112 113 117 117 115 112 109 104 98 91 86 81 65 34 40 13 357 21 87 349 327 317 321 319 317 313 305 331 329 318 314 307 309 317
103 105 104 101 102 109 113 110 111 116 120 119 112 106 102 98 95 93 86 79 66 48 25 15 6 6 5 101 61 334 330 329 319 315 316 328 348 321 311 305 304 311 311
103 102 100 99 100 107 113 116 120 124 124 118 109 102 97 94 99 98 90 69 31 35 20 11 359 359 358 360 2 317 304 305 311 313 322 332 329 312 302 302 310 307 304
105 106 109 110 117 127 131 126 128 131 128 118 107 103 102 98 97 95 86 63 20 8 6 2 357 353 349 347 306 305 301 291 305 318 317 306 300 300 301 298 299 303 321
113 118 120 120 120 125 123 122 128 133 130 121 115 115 115 121 110 51 23 14 11 7 2 359 353 346 343 351 350 342 335 329 322 327 316 299 292 302 318 316 319 331 339
124 123 117 111 108 107 105 111 122 135 134 130 127 127 114 85 86 51 25 3 31 28 351 353 352 348 345 357 341 326 330 331 331 325 321 341 347 346 344 339 339 339 341
118 111 105 99 95 93 89 88 99 119 132 146 148 144 114 62 327 326 154 122 50 116 131 332 335 349 1 335 325 321 317 313 312 317 343 348 344 339 336 334 336 341 345
Height
1493 1495 1497 1500 1504 1507 1509 1512 1516 1520 1524 1528 1531 1534 1537 1540 1543 1544 1547 1549 1551 1553 1554 1555 1558 1560 1561 1562 1563 1564 1564 1564 1565 1566 1565 1564 1563 1562 1561 1562 1562 1560 1558
1490 1491 1493 1495 1498 1501 1504 1507 1511 1516 1519 1524 1527 1531 1533 1535 1537 1540 1542 1544 1545 1547 1550 1551 1553 1555 1558 1559 1560 1561 1561 1561 1561 1562 1563 1563 1562 1557 1559 1558 1558 1557 1556
1487 1487 1488 1490 1493 1496 1499 1503 1507 1511 1515 1519 1522 1525 1528 1531 1533 1535 1538 1540 1541 1543 1546 1546 1548 1551 1554 1556 1557 1558 1558 1558 1558 1559 1561 1562 1560 1558 1557 1555 1555 1553 1553
1485 1484 1484 1485 1488 1492 1496 1500 1503 1507 1511 1515 1518 1520 1523 1526 1530 1532 1535 1537 1538 1540 1542 1544 1545 1548 1550 1552 1554 1554 1555 1556 1557 1557 1557 1558 1557 1558 1556 1554 1552 1551 1549
1485 1483 1483 1483 1485 1488 1492 1496 1500 1504 1508 1511 1514 1517 1520 1523 1525 1528 1530 1534 1536 1538 1540 1542 1544 1546 1548 1550 1552 1553 1553 1554 1556 1557 1557 1556 1555 1555 1554 1552 1551 1548 1546
1486 1484 1483 1482 1483 1486 1489 1493 1497 1501 1505 1509 1512 1515 1518 1520 1522 1524 1527 1530 1534 1536 1538 1541 1543 1545 1547 1549 1551 1551 1552 1553 1553 1554 1555 1555 1555 1553 1552 1549 1546 1544 1542
1488 1486 1485 1484 1485 1487 1489 1492 1496 1500 1504 1508 1511 1514 1517 1519 1521 1523 1526 1529 1532 1536 1538 1541 1543 1545 1547 1549 1550 1550 1551 1552 1552 1552 1553 1553 1552 1551 1549 1546 1543 1539 1536
1491 1489 1488 1488 1488 1489 1491 1494 1497 1501 1505 1508 1511 1514 1516 1519 1521 1523 1526 1529 1532 1536 1539 1542 1544 1546 1547 1548 1549 1550 1550 1550 1550 1550 1550 1549 1549 1547 1545 1543 1539 1534 1530
1494 1493 1492 1492 1492 1493 1495 1497 1500 1503 1506 1509 1511 1514 1516 1519 1521 1524 1527 1530 1533 1537 1540 1543 1544 1546 1548 1549 1549 1550 1550 1549 1549 1549 1548 1547 1546 1543 1541 1538 1536 1533 1526
1497 1496 1496 1496 1496 1497 1499 1500 1503 1505 1508 1510 1512 1515 1517 1520 1523 1526 1529 1532 1535 1538 1541 1543 1545 1546 1547 1548 1549 1549 1548 1548 1546 1545 1543 1541 1541 1539 1536 1534 1531 1528 1524
1499 1499 1499 1499 1500 1501 1502 1504 1506 1508 1510 1512 1515 1517 1520 1522 1525 1528 1531 1534 1537 1540 1542 1544 1545 1546 1547 1547 1547 1547 1546 1545 1544 1542 1540 1538 1536 1534 1531 1529 1527 1524 1520
1502 1502 1503 1503 1504 1505 1506 1508 1510 1511 1513 1515 1518 1520 1522 1525 1527 1530 1533 1536 1538 1541 1543 1544 1545 1546 1546 1546 1545 1545 1544 1543 1541 1538 1536 1534 1532 1529 1527 1524 1522 1518 1515
1504 1505 1506 1507 1508 1509 1511 1512 1514 1515 1517 1519 1521 1523 1525 1528 1530 1533 1535 1538 1540 1541 1543 1544 1544 1545 1544 1544 1543 1542 1540 1539 1537 1535 1532 1530 1527 1525 1523 1519 1516 1513 1509
1507 1508 1509 1510 1512 1513 1515 1516 1517 1519 1520 1522 1524 1526 1528 1530 1533 1535 1537 1539 1540 1542 1542 1543 1543 1543 1543 1542 1541 1539 1537 1535 1533 1531 1528 1526 1523 1521 1518 1515 1512 1508 1504
1509 1510 1512 1513 1515 1517 1518 1520 1521 1522 1524 1525 1527 1529 1531 1533 1535 1537 1538 1540 1541 1541 1542 1542 1542 1542 1541 1539 1537 1536 1535 1532 1530 1528 1525 1523 1519 1516 1513 1510 1507 1503 1499
1511 1513 1514 1516 1518 1519 1521 1523 1524 1526 1527 1528 1530 1531 1533 1535 1537 1538 1539 1540 1541 1541 1541 1541 1541 1540 1539 1536 1534 1532 1531 1529 1527 1525 1522 1519 1517 1513 1509 1506 1503 1499 1495
1512 1514 1516 1517 1519 1521 1523 1525 1527 1528 1530 1531 1532 1534 1535 1536 1538 1539 1539 1540 1541 1541 1541 1540 1540 1538 1535 1534 1532 1530 1528 1527 1524 1521 1518 1516 1514 1510 1507 1503 1498 1494 1490
1513 1515 1517 1519 1521 1523 1525 1527 1528 1530 1531 1533 1534 1535 1537 1538 1539 1540 1540 1541 1541 1541 1540 1539 1538 1537 1534 1532 1530 1528 1525 1524 1521 1518 1515 1513 1510 1507 1503 1498 1494 1490 1486
1514 1517 1519 1521 1523 1525 1527 1528 1530 1531 1533 1534 1536 1537 1539 1539 1540 1541 1541 1541 1541 1540 1540 1538 1537 1535 1533 1530 1527 1525 1522 1521 1518 1516 1513 1510 1508 1504 1500 1495 1490 1486 1481
1517 1519 1521 1523 1525 1527 1529 1530 1532 1533 1535 1537 1538 1540 1540 1541 1541 1541 1541 1541 1540 1540 1540 1538 1536 1534 1532 1528 1525 1522 1521 1518 1515 1513 1511 1508 1504 1501 1496 1492 1488 1483 1478
1520 1522 1524 1526 1528 1529 1531 1532 1533 1535 1537 1539 1540 1541 1541 1541 1541 1541 1541 1541 1541 1540 1538 1537 1535 1532 1530 1527 1523 1520 1518 1516 1513 1511 1508 1505 1501 1497 1494 1490 1486 1481 1475
1524 1525 1527 1528 1530 1531 1533 1534 1536 1538 1540 1541 1541 1542 1542 1543 1542 1542 1541 1541 1541 1540 1538 1536 1534 1532 1529 1525 1522 1519 1516 1513 1511 1509 1506 1503 1499 1495 1491 1488 1484 1479 1474
1527 1529 1530 1531 1533 1535 1536 1537 1539 1540 1541 1542 1542 1543 1543 1543 1543 1543 1542 1542 1540 1539 1537 1535 1533 1530 1527 1524 1521 1518 1515 1512 1509 1507 1504 1500 1497 1493 1490 1486 1482 1477 1473
1530 1532 1533 1535 1536 1538 1539 1540 1541 1542 1543 1543 1543 1543 1543 1543 1543 1543 1542 1541 1540 1538 1536 1534 1532 1529 1526 1523 1519 1516 1513 1511 1508 1506 1503 1499 1496 1493 1489 1485 1481 1476 1472
1534 1535 1537 1538 1539 1540 1541 1542 1542 1542 1543 1543 1544 1544 1544 1544 1543 1543 1542 1541 1539 1537 1535 1533 1530 1527 1525 1521 1518 1514 1512 1509 1507 1504 1502 1499 1496 1492 1488 1484 1480 1476 1472
1537 1539 1540 1541 1542 1542 1543 1543 1543 1543 1543 1544 1544 1544 1544 1543 1543 1542 1540 1538 1537 1535 1532 1530 1528 1526 1523 1520 1517 1514 1512 1509 1507 1504 1502 1499 1496 1492 1489 1485 1480 1476 1472